EW0150 Weather Reports


time (UTC)temp
C
wind
direction
speed
KPH
gust
KPH
rain 1hr
cm
rain 24hr
cm
rain mn
cm
humidity
%
barometer
mb
20260507175005 15 341 12.9 20.9 0.00 0.00 0.00 69 1012.0
20260507174004 16 329 9.7 17.7 0.00 0.00 0.00 66 1011.8
20260507173004 16 343 11.3 20.9 0.00 0.00 0.00 64 1011.6
20260507172006 16 342 8.0 14.5 0.00 0.00 0.00 64 1011.4
20260507171007 16 343 11.3 22.5 0.00 0.00 0.00 63 1011.3
20260507170009 16 340 11.3 19.3 0.00 0.00 0.00 63 1011.2
20260507165005 17 328 11.3 19.3 0.00 0.00 0.00 60 1011.0
20260507164005 17 285 12.9 22.5 0.00 0.00 0.00 56 1010.9
20260507163004 18 273 12.9 24.1 0.00 0.00 0.00 54 1010.7
20260507162004 18 240 9.7 16.1 0.00 0.00 0.00 60 1010.5
20260507161004 18 182 11.3 17.7 0.00 0.00 0.00 59 1010.4
20260507155007 19 211 14.5 22.5 0.00 0.00 0.00 58 1010.4
20260507154009 19 238 11.3 19.3 0.00 0.00 0.00 57 1010.5
20260507153005 19 188 14.5 27.4 0.00 0.00 0.00 57 1010.6
20260507151007 20 169 11.3 19.3 0.00 0.00 0.00 59 1010.4
20260507145005 20 192 12.9 22.5 0.00 0.00 0.00 56 1010.3
20260507144007 20 209 14.5 20.9 0.00 0.00 0.00 56 1010.4
20260507143006 20 181 14.5 22.5 0.00 0.00 0.00 55 1010.3
20260507142004 20 187 11.3 22.5 0.00 0.00 0.00 56 1010.3
20260507140006 20 224 11.3 20.9 0.00 0.00 0.00 55 1010.3
20260507135004 20 224 14.5 25.7 0.00 0.00 0.00 52 1010.3
20260507134003 21 173 12.9 25.7 0.00 0.00 0.00 53 1010.2
20260507133004 20 236 12.9 20.9 0.00 0.00 0.00 51 1010.4
20260507132005 21 255 12.9 25.7 0.00 0.00 0.00 50 1010.4
20260507131004 20 222 14.5 22.5 0.00 0.00 0.00 51 1010.5
20260507130006 20 256 12.9 27.4 0.00 0.00 0.00 52 1010.6
20260507125004 21 257 12.9 24.1 0.00 0.00 0.00 51 1010.4
20260507124003 21 267 12.9 20.9 0.00 0.00 0.00 50 1010.4
20260507122004 20 255 12.9 22.5 0.00 0.00 0.00 52 1010.6
20260507121006 20 257 14.5 22.5 0.00 0.00 0.00 56 1010.6
20260507120008 20 276 16.1 30.6 0.00 0.00 0.00 57 1010.7
20260507114005 21 281 11.3 19.3 0.00 0.00 0.00 56 1010.5
20260507112005 20 267 11.3 20.9 0.00 0.00 0.00 57 1010.6
20260507111006 20 171 8.0 20.9 0.00 0.00 0.00 61 1010.6
20260507110008 19 162 6.4 16.1 0.00 0.00 0.00 62 1010.4
20260507105007 20 200 9.7 17.7 0.00 0.00 0.00 60 1010.5
20260507104005 20 211 12.9 17.7 0.00 0.00 0.00 58 1010.5
20260507103005 19 205 12.9 20.9 0.00 0.00 0.00 60 1010.5
20260507102007 19 238 11.3 22.5 0.00 0.00 0.00 60 1010.4
20260507101005 19 192 11.3 16.1 0.00 0.00 0.00 62 1010.3
20260507095005 19 257 9.7 19.3 0.00 0.00 0.00 61 1010.3
20260507094005 19 264 8.0 14.5 0.00 0.00 0.00 59 1010.2
20260507092006 20 217 11.3 17.7 0.00 0.00 0.00 61 1010.2
20260507091005 19 194 8.0 14.5 0.00 0.00 0.00 62 1010.1
20260507085006 18 215 9.7 19.3 0.00 0.00 0.00 66 1010.0
20260507084005 18 246 9.7 14.5 0.00 0.00 0.00 66 1009.9
20260507083005 18 242 8.0 19.3 0.00 0.00 0.00 67 1009.8
20260507082005 18 186 9.7 22.5 0.00 0.00 0.00 67 1009.8
20260507081005 17 237 11.3 16.1 0.00 0.00 0.00 69 1009.8
20260507080008 17 261 12.9 22.5 0.00 0.00 0.00 70 1009.8
20260507075005 17 178 11.3 20.9 0.00 0.00 0.00 72 1009.7
20260507074005 17 240 12.9 20.9 0.00 0.00 0.00 73 1009.7
20260507071005 16 253 11.3 19.3 0.00 0.00 0.00 75 1009.3
20260507065005 16 235 11.3 20.9 0.00 0.00 0.00 76 1009.2
20260507064005 15 241 14.5 25.7 0.00 0.00 0.00 78 1009.1
20260507063005 15 202 12.9 25.7 0.00 0.00 0.00 78 1008.9
20260507061005 14 182 4.8 9.7 0.00 0.00 0.00 82 1008.8
20260507060009 14 236 8.0 14.5 0.00 0.00 0.00 82 1008.9
20260507055006 15 250 4.8 11.3 0.00 0.00 0.00 82 1008.8
20260507054005 14 273 6.4 11.3 0.00 0.00 0.00 83 1008.5
20260507053005 14 234 4.8 8.0 0.00 0.00 0.00 84 1008.3
20260507052005 13 217 3.2 6.4 0.00 0.00 0.00 85 1008.3
20260507051004 13 202 4.8 9.7 0.00 0.00 0.00 86 1008.2
20260507050006 13 209 6.4 9.7 0.00 0.00 0.00 86 1008.2
20260507045004 13 199 4.8 9.7 0.00 0.00 0.00 86 1008.0
20260507044005 13 279 4.8 8.0 0.00 0.00 0.00 86 1007.9
20260507043004 13 265 4.8 11.3 0.00 0.00 0.00 86 1007.9
20260507042004 13 323 4.8 9.7 0.00 0.00 0.00 86 1007.7
20260507041005 13 290 4.8 8.0 0.00 0.00 0.00 86 1007.6
20260507040007 13 277 4.8 8.0 0.00 0.00 0.00 87 1007.4
20260507033005 12 281 4.8 11.3 0.00 0.00 0.00 87 1007.3
20260507032010 12 282 4.8 11.3 0.00 0.00 0.00 87 1007.2
20260507031007 12 286 4.8 11.3 0.00 0.00 0.00 87 1007.3
20260507030009 12 278 6.4 11.3 0.00 0.00 0.00 87 1007.1
20260507025007 12 286 8.0 14.5 0.00 0.00 0.00 87 1007.0
20260507024006 12 285 11.3 19.3 0.00 0.00 0.00 86 1006.9
20260507023006 12 315 3.2 9.7 0.00 0.00 0.00 86 1006.7
20260507022008 12 217 3.2 4.8 0.00 0.00 0.00 86 1006.5
20260507021009 12 217 1.6 4.8 0.00 0.00 0.00 85 1006.6
20260507020023 12 217 0.0 1.6 0.00 0.00 0.00 86 1006.6
20260507015006 12 217 1.6 4.8 0.00 0.00 0.00 85 1006.6
20260507014006 12 217 0.0 3.2 0.00 0.00 0.00 86 1006.6
20260507013007 12 217 1.6 1.6 0.00 0.00 0.00 86 1006.5
20260507012006 12 217 3.2 4.8 0.00 0.00 0.00 86 1006.4
20260507010009 13 216 3.2 4.8 0.00 0.00 0.00 84 1006.3
20260507004008 13 217 1.6 3.2 0.00 0.00 0.00 83 1006.3
20260507003009 13 217 4.8 6.4 0.00 0.00 0.00 83 1006.4
20260507002006 13 278 3.2 4.8 0.00 0.00 0.00 82 1006.3
20260507001009 13 278 1.6 4.8 0.00 0.00 0.00 82 1006.4
20260507000012 13 278 1.6 4.8 0.00 0.00 0.00 81 1006.4
20260506235008 13 278 3.2 4.8 0.00 0.00 0.00 81 1006.3
20260506233006 13 315 1.6 3.2 0.00 0.00 0.00 80 1006.4
20260506232006 13 315 4.8 6.4 0.00 0.00 0.00 79 1006.5
20260506231006 14 313 4.8 8.0 0.00 0.00 0.00 77 1006.6
20260506230008 15 289 3.2 8.0 0.00 0.00 0.00 75 1006.5
20260506225006 15 302 4.8 8.0 0.00 0.00 0.00 73 1006.4
20260506224006 16 331 8.0 12.9 0.00 0.00 0.00 69 1006.5
20260506223006 16 333 6.4 17.7 0.00 0.00 0.00 65 1006.5
20260506222006 17 201 4.8 8.0 0.00 0.00 0.00 62 1006.3
20260506221004 18 217 6.4 14.5 0.00 0.00 0.00 60 1006.2
20260506215003 18 169 9.7 16.1 0.00 0.00 0.00 59 1006.1
20260506214005 18 184 11.3 17.7 0.00 0.00 0.00 58 1006.1
20260506213005 18 183 11.3 16.1 0.00 0.00 0.00 58 1006.0
20260506212005 18 163 9.7 16.1 0.00 0.00 0.00 58 1006.0
20260506211005 18 171 9.7 16.1 0.00 0.00 0.00 58 1005.9
20260506210009 18 181 11.3 16.1 0.00 0.00 0.00 58 1005.9
20260506205007 18 178 12.9 22.5 0.00 0.00 0.00 57 1005.9
20260506204008 19 187 12.9 24.1 0.00 0.00 0.00 57 1005.7
20260506203006 19 190 9.7 16.1 0.00 0.00 0.00 57 1005.8
20260506202005 19 163 11.3 16.1 0.00 0.00 0.00 56 1005.6
20260506201004 19 163 11.3 19.3 0.00 0.00 0.00 56 1005.5
20260506200007 19 148 11.3 17.7 0.00 0.00 0.00 56 1005.5
20260506195004 19 159 11.3 17.7 0.00 0.00 0.00 56 1005.5
20260506194005 19 142 9.7 14.5 0.00 0.00 0.00 56 1005.5
20260506193004 19 140 8.0 12.9 0.00 0.00 0.00 57 1005.3
20260506192005 19 153 8.0 11.3 0.00 0.00 0.00 56 1005.3
20260506191005 20 150 8.0 12.9 0.00 0.00 0.00 54 1005.3
20260506190009 20 162 6.4 9.7 0.00 0.00 0.00 53 1005.3
20260506185004 20 150 6.4 12.9 0.00 0.00 0.00 53 1005.2
20260506184007 20 156 9.7 17.7 0.00 0.00 0.00 52 1005.0
20260506182005 21 165 14.5 24.1 0.00 0.00 0.00 50 1004.9
20260506181004 21 163 14.5 22.5 0.00 0.00 0.00 49 1004.9
20260506180008 21 145 16.1 29.0 0.00 0.00 0.00 49 1004.9